[[{"header":{"parameterUnit":"m.s-1","parameterCategory":1,"la1":30.2991,"la2":30.254,"lo1":-89.0895,"lo2":-89.0444,"dy":0.0017,"dx":0.0017,"nx":28,"ny":28,"refTime":"2024-07-24T03:00:00:Z","depth":0,"parameterNumber":2,"parameterNumberName":"U-component_of_WINDS"},"data":[0,0,0,0,0,0,0,0,0,0,0,0,0,0,0,0,0,0,0,0,0,0,0,0,0,0,0,0,0,0,0,0,0,0,0,0,0,0,0,0,0,0,0,0,0,0,0,0,0,0,0,0,0,0,0,0,0,0,-2.4436,-2.4436,0,-2.4394,-2.4393,-2.4393,-2.4295,-2.4293,-2.4291,-2.4289,-2.4247,-2.4247,-2.4248,0,0,0,0,0,0,0,0,0,0,0,0,0,-2.4433,-2.4434,-2.4436,-2.4436,-2.4435,-2.4394,-2.4393,-2.4393,-2.4295,-2.4293,-2.429,-2.4288,-2.4246,-2.4247,-2.4248,0,0,0,0,0,0,0,0,0,0,0,0,0,-2.4417,-2.4434,-2.4436,-2.4382,-2.4376,-2.4394,-2.4393,-2.4393,-2.4296,-2.4293,-2.429,-2.4287,-2.4246,-2.4247,-2.4248,-2.4316,0,0,-2.4252,-2.4252,0,0,0,0,0,0,0,0,-2.4418,-2.4417,-2.439,-2.4385,-2.438,-2.4347,-2.4376,-2.4367,-2.4297,-2.4326,-2.4289,-2.4285,-2.4282,-2.428,-2.4279,-2.4314,-2.4312,-2.4252,-2.4253,-2.4253,-2.4253,0,0,0,0,0,0,0,-2.4419,-2.4419,-2.442,-2.439,-2.4383,-2.4359,-2.4354,-2.4374,-2.4322,-2.4324,-2.4316,-2.4313,-2.4279,-2.4278,-2.4277,-2.4312,-2.4252,-2.4253,-2.4254,-2.4254,-2.4399,-2.4402,0,0,0,0,0,0,-2.4428,-2.442,-2.4421,-2.4418,-2.4392,-2.4362,-2.4355,-2.436,-2.4322,-2.4313,-2.4315,-2.4308,-2.4278,-2.4276,-2.4276,-2.4351,-2.4253,-2.4254,-2.4255,-2.4395,-2.4399,-2.4403,0,0,0,0,0,0,-2.4429,-2.4429,-2.4423,-2.4417,-2.4414,-2.4365,-2.4371,-2.4361,-2.436,-2.4315,-2.4305,-2.4324,-2.4275,-2.4274,-2.4306,-2.4349,-2.4255,-2.4256,-2.4392,-2.4397,-2.4401,-2.4505,0,0,0,0,0,0,-2.4429,-2.443,-2.4456,-2.4419,-2.4415,-2.4455,-2.4374,-2.4362,-2.4362,-2.4353,-2.4321,-2.4313,-2.4273,-2.4305,-2.4308,-2.4348,-2.4257,-2.4388,-2.4394,-2.44,-2.4497,-2.4512,-2.4525,0,0,0,0,0,-2.4429,-2.4487,-2.4457,-2.4458,-2.4446,-2.4457,-2.4455,-2.4408,-2.4366,-2.4391,-2.4362,-2.4314,-2.4344,-2.4309,-2.4311,-2.4353,-2.4385,-2.4392,-2.4399,-2.4491,-2.4509,-2.4525,0,0,0,0,0,0,-2.4531,-2.4481,-2.4448,-2.4495,-2.4481,-2.4441,-2.4471,-2.4429,-2.4427,-2.4418,-2.4359,-2.4353,-2.4393,-2.4376,-2.4339,-2.4416,-2.4356,-2.4364,-2.4426,-2.4443,-2.4456,-2.446,-2.4258,0,0,0,0,0,-2.4559,-2.4572,-2.4528,-2.4574,-2.4569,-2.4521,-2.4524,-2.4489,-2.4472,-2.4466,-2.4439,-2.4425,-2.443,-2.4435,-2.4438,-2.4494,-2.4485,-2.4524,-2.4538,-2.4549,-2.4557,-2.4584,-2.46,-2.4426,-2.4426,-2.4426,0,0,-2.4617,-2.4591,-2.4603,-2.4594,-2.4579,-2.4593,-2.4517,-2.4536,-2.4546,-2.4469,-2.4497,-2.4477,-2.4457,-2.4501,-2.4519,-2.4488,-2.4603,-2.4558,-2.4568,-2.4569,-2.4593,-2.4609,-2.4624,-2.4431,-2.443,-2.4429,0,0,-2.473,-2.4712,-2.4748,-2.4734,-2.4712,-2.468,-2.4688,-2.4654,-2.4637,-2.4665,-2.4606,-2.4618,-2.4629,-2.4617,-2.4613,-2.4719,-2.4675,-2.4722,-2.4795,-2.4822,-2.4836,-2.4848,-2.4885,-2.4899,-2.473,-2.473,-2.473,0,-2.4805,-2.4825,-2.4772,-2.4795,-2.4792,-2.4721,-2.4757,-2.4746,-2.4726,-2.4726,-2.4691,-2.4703,-2.4685,-2.4724,-2.475,-2.4749,-2.4757,-2.4726,-2.4838,-2.4849,-2.486,-2.4895,-2.4909,-2.4736,-2.4735,-2.4734,-2.4734,0,-2.4918,-2.4933,-2.4964,-2.4946,-2.4946,-2.4976,-2.4927,-2.4934,-2.4898,-2.487,-2.4898,-2.4873,-2.4869,-2.4876,-2.4842,-2.491,-2.4892,-2.4849,-2.4788,-2.4883,-2.4915,-2.4928,-2.4744,-2.4742,-2.474,-2.4739,0,0,-2.5095,-2.5046,-2.5059,-2.5049,-2.5018,-2.5028,-2.5054,-2.5049,-2.5056,-2.5045,-2.5064,-2.5075,-2.5034,-2.5029,-2.4992,-2.5016,-2.5101,-2.4969,-2.4968,-2.4994,-2.5174,-2.5206,-2.5223,-2.5071,-2.5073,-2.5075,-2.5175,0,-2.5201,-2.5241,-2.5194,-2.5245,-2.5257,-2.5189,-2.5211,-2.5194,-2.5168,-2.5175,-2.5145,-2.5153,-2.51,-2.5096,-2.5116,-2.5086,-2.5136,-2.5078,-2.5088,-2.5089,-2.5095,-2.524,-2.5274,-2.537,-2.5188,-2.519,-2.5191,0,-2.533,-2.5323,-2.5375,-2.534,-2.5343,-2.5364,-2.5355,-2.5362,-2.5342,-2.5321,-2.5314,-2.527,-2.5292,-2.5232,-2.5261,-2.5223,-2.5224,-2.521,-2.5212,-2.5211,-2.5146,-2.5242,-2.54,-2.5414,-2.521,-2.5209,-2.5207,0,-2.5454,-2.5458,-2.5489,-2.5482,-2.5442,-2.5458,-2.5442,-2.5419,-2.5418,-2.5411,-2.541,-2.5405,-2.5403,-2.54,-2.5355,-2.5316,-2.5389,-2.5326,-2.5372,-2.5373,-2.5391,-2.539,-2.5551,-2.5392,-2.5392,-2.5392,-2.5391,0,-2.5577,-2.5611,-2.5543,-2.5563,-2.5598,-2.5543,-2.558,-2.5557,-2.5536,-2.555,-2.5491,-2.5504,-2.5444,-2.5451,-2.5416,-2.5445,-2.5444,-2.5428,-2.5418,-2.5433,-2.5435,-2.5433,-2.5425,-2.5395,-2.5395,-2.5394,-2.5393,0,-2.5721,-2.5677,-2.5706,-2.5665,-2.5656,-2.5684,-2.5649,-2.5664,-2.5634,-2.5651,-2.5652,-2.5604,-2.5609,-2.5563,-2.556,-2.5536,-2.5581,-2.556,-2.5588,-2.5581,-2.5629,-2.5625,-2.5794,-2.5812,-2.5643,-2.5645,-2.5646,0,-2.5803,-2.5827,-2.5788,-2.5792,-2.5779,-2.5787,-2.5786,-2.5732,-2.5734,-2.5711,-2.573,-2.5729,-2.5727,-2.5738,-2.5702,-2.5699,-2.5677,-2.5736,-2.5676,-2.569,-2.5677,-2.5676,-2.5678,-2.5749,-2.5751,-2.5753,-2.5754,0,-2.5952,-2.5928,-2.5929,-2.5922,-2.5923,-2.5915,-2.5903,-2.591,-2.5851,-2.5855,-2.5859,-2.5857,-2.5853,-2.5853,-2.5843,-2.5825,-2.578,-2.5773,-2.5783,-2.5799,-2.5814,-2.5806,-2.5622,-2.5769,-2.5768,-2.5767,-2.5766,-2.5765,-2.6067,-2.6085,-2.606,-2.6062,-2.6047,-2.6037,-2.6049,-2.602,-2.6022,-2.6014,-2.5982,-2.5991,-2.5968,-2.5949,-2.5936,-2.5942,-2.5914,-2.5929,-2.5933,-2.5937,-2.5946,-2.5813,-2.594,-2.594,-2.5939,-2.5939,-2.5939,0,-2.6212,-2.6192,-2.6195,-2.618,-2.6181,-2.6137,-2.6122,-2.6126,-2.6135,-2.6117,-2.6115,-2.6119,-2.6119,-2.6083,-2.6078,-2.6089,-2.6068,-2.609,-2.6089,-2.6085,-2.5972,-2.5963,-2.6107,-2.6107,-2.6107,-2.6107,-2.6107,-2.6107,-2.6288,-2.6316,-2.6289,-2.6309,-2.6288,-2.6297,-2.6291,-2.6281,-2.6267,-2.6274,-2.6273,-2.6249,-2.6223,-2.6216,-2.6213,-2.6202,-2.6203,-2.6232,-2.6214,-2.611,-2.6093,-2.6078,-2.6069,-2.6233,-2.6233,-2.6327,-2.6327,-2.6328]},{"header":{"parameterUnit":"m.s-1","parameterCategory":1,"la1":30.2991,"la2":30.254,"lo1":-89.0895,"lo2":-89.0444,"dy":0.0017,"dx":0.0017,"nx":28,"ny":28,"refTime":"2024-07-24T03:00:00:Z","depth":0,"parameterNumber":3,"parameterNumberName":"V-component_of_WINDS"},"data":[0,0,0,0,0,0,0,0,0,0,0,0,0,0,0,0,0,0,0,0,0,0,0,0,0,0,0,0,0,0,0,0,0,0,0,0,0,0,0,0,0,0,0,0,0,0,0,0,0,0,0,0,0,0,0,0,0,0,-2.4326,-2.4327,0,-2.4424,-2.4425,-2.4426,-2.4414,-2.4413,-2.4411,-2.4409,-2.4504,-2.4508,-2.4512,0,0,0,0,0,0,0,0,0,0,0,0,0,-2.4123,-2.4127,-2.4326,-2.4327,-2.4328,-2.4423,-2.4425,-2.4426,-2.4414,-2.4412,-2.4411,-2.4409,-2.4503,-2.4508,-2.4512,0,0,0,0,0,0,0,0,0,0,0,0,0,-2.4215,-2.4128,-2.4326,-2.4334,-2.4336,-2.4423,-2.4425,-2.4426,-2.4415,-2.4412,-2.441,-2.4408,-2.4501,-2.4507,-2.4513,-2.4597,0,0,-2.4531,-2.4534,0,0,0,0,0,0,0,0,-2.421,-2.4222,-2.4332,-2.4334,-2.4336,-2.4404,-2.4388,-2.4483,-2.4415,-2.4385,-2.4409,-2.4407,-2.4473,-2.4481,-2.4504,-2.4601,-2.4605,-2.4532,-2.4535,-2.4538,-2.454,0,0,0,0,0,0,0,-2.4203,-2.4218,-2.4364,-2.4333,-2.4336,-2.4331,-2.4341,-2.4406,-2.444,-2.4387,-2.4387,-2.4399,-2.4473,-2.4498,-2.4506,-2.4607,-2.4532,-2.4537,-2.4541,-2.4543,-2.4775,-2.4778,0,0,0,0,0,0,-2.4196,-2.4213,-2.4361,-2.4367,-2.4266,-2.4336,-2.4348,-2.4385,-2.444,-2.4446,-2.44,-2.4398,-2.4489,-2.4499,-2.4509,-2.461,-2.4538,-2.4544,-2.4547,-2.4773,-2.4776,-2.4779,0,0,0,0,0,0,-2.4191,-2.4209,-2.4357,-2.429,-2.4309,-2.4343,-2.4384,-2.4388,-2.4413,-2.445,-2.4455,-2.442,-2.4488,-2.4501,-2.4575,-2.4613,-2.4546,-2.4552,-2.477,-2.4774,-2.4777,-2.4813,0,0,0,0,0,0,-2.4186,-2.4208,-2.4241,-2.4291,-2.4312,-2.4424,-2.4386,-2.4391,-2.4424,-2.4421,-2.447,-2.4476,-2.4487,-2.4566,-2.4581,-2.462,-2.4556,-2.4766,-2.4771,-2.4776,-2.4808,-2.4817,-2.4825,0,0,0,0,0,-2.4178,-2.4247,-2.4243,-2.4261,-2.4356,-2.4426,-2.4438,-2.4451,-2.4427,-2.446,-2.4483,-2.4474,-2.4607,-2.4574,-2.459,-2.4632,-2.4764,-2.477,-2.4776,-2.4805,-2.4816,-2.4825,0,0,0,0,0,0,-2.4199,-2.4254,-2.425,-2.4337,-2.4377,-2.4424,-2.4466,-2.4463,-2.4509,-2.4504,-2.4517,-2.4528,-2.4603,-2.4625,-2.4587,-2.4715,-2.4682,-2.4691,-2.4698,-2.4709,-2.4717,-2.471,-2.4561,0,0,0,0,0,-2.4214,-2.4269,-2.4312,-2.4385,-2.4405,-2.4432,-2.4463,-2.447,-2.4511,-2.4528,-2.4556,-2.4595,-2.4645,-2.4678,-2.4727,-2.4811,-2.4821,-2.4848,-2.4856,-2.4863,-2.4871,-2.4915,-2.4928,-2.4798,-2.4798,-2.4797,0,0,-2.4245,-2.4282,-2.4315,-2.439,-2.4422,-2.4476,-2.4446,-2.4505,-2.4545,-2.4536,-2.4608,-2.463,-2.4674,-2.4754,-2.479,-2.4774,-2.4909,-2.487,-2.4875,-2.488,-2.4923,-2.4935,-2.4946,-2.4802,-2.4801,-2.48,0,0,-2.433,-2.4363,-2.4427,-2.4459,-2.4508,-2.4526,-2.4541,-2.4588,-2.4603,-2.4676,-2.467,-2.4716,-2.4803,-2.4834,-2.4861,-2.4955,-2.4948,-2.497,-2.5014,-2.5058,-2.5068,-2.5077,-2.511,-2.5122,-2.4978,-2.4978,-2.4978,0,-2.4362,-2.4445,-2.4459,-2.4519,-2.4551,-2.4547,-2.461,-2.464,-2.4701,-2.4723,-2.4705,-2.4813,-2.4842,-2.4928,-2.4951,-2.4973,-2.4989,-2.4965,-2.5066,-2.5075,-2.5084,-2.5115,-2.5127,-2.4981,-2.498,-2.498,-2.498,0,-2.4482,-2.4539,-2.4584,-2.4645,-2.4682,-2.4743,-2.4764,-2.48,-2.4803,-2.4821,-2.4894,-2.4929,-2.4984,-2.5004,-2.5007,-2.509,-2.5079,-2.5063,-2.503,-2.5098,-2.5128,-2.514,-2.4984,-2.4983,-2.4983,-2.4982,0,0,-2.4583,-2.4651,-2.4667,-2.4694,-2.4747,-2.4791,-2.485,-2.4905,-2.4935,-2.4976,-2.5025,-2.5098,-2.5084,-2.5115,-2.5121,-2.5159,-2.523,-2.5138,-2.5139,-2.5154,-2.5322,-2.5333,-2.5347,-2.5225,-2.5227,-2.5229,-2.5318,0,-2.4672,-2.478,-2.4794,-2.4888,-2.4941,-2.4936,-2.4988,-2.5024,-2.5043,-2.5088,-2.5107,-2.5159,-2.5136,-2.5154,-2.5192,-2.5214,-2.5264,-2.5207,-2.5269,-2.5271,-2.5259,-2.5363,-2.5375,-2.5457,-2.533,-2.5332,-2.5333,0,-2.4791,-2.4838,-2.4938,-2.4983,-2.5005,-2.5052,-2.5102,-2.5146,-2.5187,-2.5197,-2.5231,-2.5232,-2.5291,-2.5255,-2.5336,-2.5297,-2.5323,-2.5337,-2.534,-2.5346,-2.5306,-2.5371,-2.5484,-2.5496,-2.5351,-2.535,-2.5349,0,-2.4854,-2.4942,-2.5013,-2.5036,-2.509,-2.5123,-2.5146,-2.5185,-2.5216,-2.526,-2.528,-2.5329,-2.5356,-2.5393,-2.5406,-2.5379,-2.5485,-2.5451,-2.5494,-2.5494,-2.5517,-2.5515,-2.5635,-2.5534,-2.5534,-2.5534,-2.5533,0,-2.4953,-2.5014,-2.5042,-2.5086,-2.5154,-2.5167,-2.5233,-2.5255,-2.5289,-2.5335,-2.5333,-2.5376,-2.5391,-2.5436,-2.5446,-2.551,-2.5523,-2.5531,-2.5533,-2.5532,-2.553,-2.5549,-2.5543,-2.5537,-2.5536,-2.5535,-2.5535,0,-2.5035,-2.5057,-2.5134,-2.5178,-2.5191,-2.5239,-2.5276,-2.5317,-2.5334,-2.5392,-2.5407,-2.5433,-2.5485,-2.5502,-2.5565,-2.5572,-2.5647,-2.5644,-2.5634,-2.5634,-2.5676,-2.5672,-2.5811,-2.583,-2.5717,-2.5718,-2.5719,0,-2.5096,-2.5144,-2.5193,-2.5225,-2.525,-2.5301,-2.5334,-2.5348,-2.5381,-2.543,-2.5465,-2.5517,-2.556,-2.5643,-2.5667,-2.5714,-2.5712,-2.5758,-2.5719,-2.5715,-2.5712,-2.5709,-2.5713,-2.5765,-2.5766,-2.5767,-2.5768,0,-2.5202,-2.5211,-2.5259,-2.531,-2.5349,-2.539,-2.5429,-2.5454,-2.5474,-2.5511,-2.5566,-2.5599,-2.5663,-2.5714,-2.5762,-2.5784,-2.5779,-2.578,-2.5792,-2.5791,-2.5783,-2.5787,-2.5653,-2.5777,-2.5776,-2.5775,-2.5775,-2.5774,-2.5276,-2.5317,-2.5359,-2.5412,-2.5443,-2.5479,-2.552,-2.5542,-2.5588,-2.5643,-2.5648,-2.5706,-2.5743,-2.5807,-2.5831,-2.5876,-2.5862,-2.5881,-2.5885,-2.5889,-2.5892,-2.5776,-2.5884,-2.5884,-2.5884,-2.5884,-2.5884,0,-2.5382,-2.5408,-2.5457,-2.5512,-2.5553,-2.5546,-2.5588,-2.5622,-2.5674,-2.571,-2.5752,-2.5813,-2.5863,-2.589,-2.5938,-2.5968,-2.5967,-2.5981,-2.5978,-2.5983,-2.5902,-2.5886,-2.5981,-2.5981,-2.5981,-2.5981,-2.5981,-2.5981,-2.5442,-2.5511,-2.5523,-2.5607,-2.5632,-2.5691,-2.5715,-2.5748,-2.5777,-2.5846,-2.5887,-2.5905,-2.5937,-2.5988,-2.6032,-2.6038,-2.6055,-2.6071,-2.6075,-2.5999,-2.5989,-2.5979,-2.5965,-2.6074,-2.6075,-2.6153,-2.6154,-2.6154]}]]